[Iaude] MPEC T68: 2016 TC11 [a=1.53,e=0.46,i=15.7,H=23.5]

mpec at si.edu mpec at si.edu
Fri Oct 7 12:37:46 EDT 2016


M.P.E.C. 2016-T68                                Issued 2016 Oct. 7, 16:33 UT
 
     The Minor Planet Electronic Circulars contain information on unusual
         minor planets and routine data on comets.  They are published
    on behalf of Division F of the International Astronomical Union by the
          Minor Planet Center, Smithsonian Astrophysical Observatory,
                          Cambridge, MA 02138, U.S.A.

             Prepared using the Tamkin Foundation Computer Network

                              MPC at CFA.HARVARD.EDU
            URL http://www.minorplanetcenter.net/    ISSN 1523-6714


                                   2016 TC11
 
Observations:
     K16T11C  C2016 10 05.40233 03 34 26.09 -16 41 19.1          18.6 VqET068703
     K16T11C  C2016 10 05.41437 03 34 10.60 -16 37 22.8          18.8 VqET068703
     K16T11C  C2016 10 05.42039 03 34 02.96 -16 35 24.7                qET068703
     K16T11C* C2016 10 05.45365 03 33 20.42 -16 24 32.4          19.1 VqET068703
     K16T11C  C2016 10 05.46046 03 33 11.86 -16 22 20.3          18.8 VqET068703
     K16T11C  C2016 10 05.46725 03 33 03.15 -16 20 06.8          19.2 VqET068703
     K16T11C  C2016 10 05.47407 03 32 54.59 -16 17 53.3          19.1 VqET068703
     K16T11C KC2016 10 06.29813803 17 05.29 -11 56 20.2          19.8 VuET068H21
     K16T11C KC2016 10 06.30071003 17 02.35 -11 55 32.6          19.5 VuET068H21
     K16T11C KC2016 10 06.30587603 16 56.44 -11 53 57.0          20.0 VuET068H21
     K16T11C  C2016 10 06.43429 03 14 33.37 -11 14 16.7          18.8 RoET068926
     K16T11C  C2016 10 06.43556 03 14 31.95 -11 13 53.8          19.0 RoET068926
     K16T11C  C2016 10 06.76141 03 08 47.04 -09 35 48.9          19.1 RoET068300
     K16T11C  C2016 10 06.76337 03 08 44.91 -09 35 13.4          19.2 RoET068300
     K16T11C  C2016 10 06.76533 03 08 42.80 -09 34 38.9          19.2 RoET068300
     K16T11C  C2016 10 06.76730 03 08 40.64 -09 34 03.2          19.2 RoET068300
     K16T11C  C2016 10 07.33034 02 59 23.52 -06 51 22.6          18.6 VqET068I52
     K16T11C  C2016 10 07.33075 02 59 23.12 -06 51 15.7          18.4 VqET068I52
     K16T11C  C2016 10 07.33140 02 59 22.46 -06 51 04.6          18.6 VqET068I52
     K16T11C  C2016 10 07.33372 02 59 20.13 -06 50 25.8          18.4 VqET068I52
 
Observer details:
300 Bisei Spaceguard Center--BATTeRS.  Observers S. Okumura, A. Asami.  1.0-m
    f/3.0 reflector + CCD.
703 Catalina Sky Survey.  Observer D. C. Fuls.  Measurers E. J. Christensen,
    D. C. Fuls, A. R. Gibbs, A. D. Grauer, J. A. Johnson, R. A. Kowalski,
    S. M. Larson, G. J. Leonard, R. G. Matheny, R. L. Seaman, F. C. Shelly.
    0.68-m Schmidt + CCD.
926 Tenagra II Observatory.  Observers M. Schwartz, P. R. Holvorcem.  Measurer
    M. Schwartz.  0.81-m f/7 Ritchey-Chretien + CCD.
H21 Astronomical Research Observatory, Westfield.  Observer R. Holmes.
    Measurers S. Foglia, L. Buzzi, T. Linder, R. Holmes.  0.61-m f/4.5
    astrograph + CCD.
I52 Steward Observatory, Mt. Lemmon Station.  Observer J. A. Johnson.
    Measurers E. J. Christensen, D. C. Fuls, A. R. Gibbs, A. D. Grauer,
    J. A. Johnson, R. A. Kowalski, S. M. Larson, G. J. Leonard, R. G. Matheny,
    R. L. Seaman, F. C. Shelly.  1.0-m reflector + CCD.
 
Orbital elements:
2016 TC11                                                Earth MOID = 0.0525 AU
Epoch 2016 July 31.0 TT = JDT 2457600.5                 MPC
M 352.54667              (2000.0)            P               Q
n   0.52171204     Peri.  283.02719     +0.54399730     +0.83357868
a   1.5282068      Node    20.81231     -0.62629928     +0.47950582
e   0.4578925      Incl.   15.67330     -0.55840500     +0.27426403
P   1.89           H   23.5           G   0.15           U   6
Residuals in seconds of arc
161005 703  0.2+  1.3-    161006 H21  0.2+  0.6-    161006 300  0.5+  0.1+
161005 703  0.7-  0.5-    161006 H21  0.3+  0.5-    161006 300  0.0   0.7+
161005 703  0.2+  0.2-    161006 H21  0.2+  0.5-    161007 I52  0.4-  0.3-
161005 703  1.1-  0.9+    161006 926  0.9-  0.7+    161007 I52  0.2-  0.3-
161005 703  0.4+  0.4-    161006 926  0.6-  0.2+    161007 I52  0.3-  0.1-
161005 703  0.8-  0.1+    161006 300  0.5+  0.1+    161007 I52  0.2-  0.3-
161005 703  0.5+  0.0     161006 300  0.4+  0.6+

Ephemeris:
2016 TC11                a,e,i = 1.53, 0.46, 16                  q = 0.8285
Date    TT    R. A. (2000) Decl.     Delta      r     Elong.  Phase     V
2016 09 07    10 52 07.3 -43 16 49   0.2192  0.8810    49.4   119.7    24.7
...
2016 09 22    09 05 15.7 -50 00 34   0.1089  0.9578    62.2   112.0    22.9
...
2016 09 30    05 57 49.7 -42 44 07   0.06559 1.0073    93.2    83.0    20.5
...
2016 10 06    03 22 38.2 -13 27 51   0.06310 1.0470   137.3    40.4    19.2
2016 10 07    03 04 46.5 -08 24 30   0.06628 1.0537   143.9    33.9    19.1
2016 10 08    02 49 04.5 -03 49 15   0.07030 1.0605   149.9    28.2    19.1
...
2016 10 14    01 47 17.9 +13 54 55   0.1060  1.1021   170.6     8.5    19.4
...
2016 10 22    01 09 38.3 +23 04 39   0.1685  1.1587   165.0    12.8    20.7
...
2016 11 06    00 46 22.9 +27 59 28   0.3065  1.2660   150.0    23.0    22.5

A. U. Tomatic                (C) Copyright 2016 MPC           M.P.E.C. 2016-T68




More information about the Iaude mailing list